This demonstration page uses our WeatherBlox Daily Observations layout. Learn more.

Left ArrowRight Arrow

44.8408, -93.29828

Hourly Observations for March 3, 2016

Temp ( °F °C ) Dew Point ( °F °C ) Humidity (%) Winds ( mph kmh ) Pressure ( in mb ) Visibility ( mi km ) Precip ( " mm )
12:53 am 00:53 Cloudy 26 -3.3 9 -12.8 48 48 SE 7 11 30.09 1019 10 16 0.00 0.00
1:53 am 01:53 Cloudy 26 -3.3 11 -11.7 53 53 ESE 3 6 30.08 1019 10 16 0.00 0.00
2:53 am 02:53 Cloudy 26 -3.3 11 -11.7 53 53 NE 5 7 30.11 1020 10 16 0.00 0.00
3:53 am 03:53 Cloudy 26 -3.3 12 -11.1 55 55 ENE 5 7 30.10 1019 10 16 0.00 0.03
4:53 am 04:53 Cloudy 26 -3.3 13 -10.6 57 57 E 6 9 30.11 1020 10 16 0.00 0.00
5:53 am 05:53 Cloudy 26 -3.3 13 -10.6 57 57 ESE 7 11 30.12 1020 10 16 0.00 0.00
6:53 am 06:53 Cloudy 26 -3.3 14 -10 60 60 SE 3 6 30.14 1021 10 16 0.00 0.00
7:53 am 07:53 Cloudy 26 -3.3 14 -10 60 60 E 3 6 30.15 1021 10 16 0.00 0.00
8:53 am 08:53 Cloudy 27 -2.8 14 -10 58 58 Calm 30.17 1022 10 16 0.00 0.00
9:53 am 09:53 Cloudy with Light Snow 28 -2.2 16 -8.9 60 60 Calm 30.17 1022 5 8 0.00 0.03
10:53 am 10:53 Cloudy with Light Snow 28 -2.2 18 -7.8 66 66 SSW 3 6 30.18 1022 7 11 0.00 0.03
11:53 am 11:53 Cloudy 29 -1.7 18 -7.8 63 63 SE 3 6 30.17 1022 10 16 0.00 0.03
12:53 pm 12:53 Cloudy 33 0.6 19 -7.2 56 56 VRB 3 6 30.15 1021 10 16 0.00 0.00
1:53 pm 13:53 Cloudy 34 1.1 19 -7.2 54 54 WNW 7 11 30.14 1021 10 16 0.00 0.00
2:53 pm 14:53 Cloudy 33 0.6 18 -7.8 54 54 NW 9 15 30.15 1021 10 16 0.00 0.00
3:53 pm 15:53 Cloudy 33 0.6 18 -7.8 54 54 NW 9 15 30.15 1021 10 16 0.00 0.00
4:53 pm 16:53 Cloudy 33 0.6 16 -8.9 49 49 NW 6 9 30.15 1021 10 16 0.00 0.00
5:53 pm 17:53 Cloudy 32 0 16 -8.9 52 52 NNW 6 9 30.15 1021 10 16 0.00 0.00
6:53 pm 18:53 Cloudy 32 0 17 -8.3 54 54 NW 9 15 30.17 1022 10 16 0.00 0.00
7:53 pm 19:53 Cloudy 31 -0.6 16 -8.9 54 54 NW 5 7 30.17 1022 10 16 0.00 0.00
8:53 pm 20:53 Cloudy 32 0 16 -8.9 52 52 NW 3 6 30.17 1022 10 16 0.00 0.00
9:53 pm 21:53 Cloudy 31 -0.6 16 -8.9 54 54 WNW 3 6 30.18 1022 10 16 0.00 0.00
10:53 pm 22:53 Cloudy 31 -0.6 16 -8.9 54 54 Calm 30.17 1022 10 16 0.00 0.00
11:53 pm 23:53 Cloudy 32 0 16 -8.9 52 52 Calm 30.16 1021 10 16 0.00 0.00

Powered by AerisWeather